Regional Weather Roundup
Issued by NWS Charleston, SC

Current Version | Previous Version | Graphics & Text | Print | Product List | Glossary On
Versions: 1 2 3 4 5 6 7 8 9 10 11 12 13 14 15 16 17 18 19 20 21 22 23 24 25 26 27 28 29 30 31 32 33 34 35 36 37 38 39 40 41 42 43 44 45 46 47 48 49 50
000 ASUS42 KCHS 121113 RWRCHS REGIONAL WEATHER ROUNDUP NATIONAL WEATHER SERVICE CHARLESTON SC 600 AM EST FRI FEB 12 2016 NOTE: "FAIR" INDICATES FEW OR NO CLOUDS BELOW 12,000 FEET WITH NO SIGNIFICANT WEATHER AND/OR OBSTRUCTIONS TO VISIBILITY. NOT ALL STATIONS ARE QUALITY CONTROLLED BY THE NATIONAL WEATHER SERVICE. USE DATA WITH CAUTION...ESPECIALLY DEWPOINT OBSERVATIONS. SCZ027-030-031-034>040-042>050-121200- ...SOUTHEAST SOUTH CAROLINA... CITY SKY/WX TMP DP RH WIND PRES REMARKS N CHARLESTON MOCLDY 45 36 70 CALM 30.15S WATERFRONT PRK N/A 48 42 80 VRB3 30.00F MOUNT PLEASANT FAIR 46 39 76 CALM 30.15S JOHNS ISLAND PTSUNNY 46 43 87 CALM 30.15S PINOPOLIS N/A 45 37 76 VRB2 30.07F MONCKS CORNER FAIR 39 32 75 CALM 30.15F SUMMERVILLE FAIR 41 36 81 CALM 30.16S BEAUFORT MCAS CLOUDY 42 40 92 CALM 30.15S BEAUFORT ARPT FAIR 41 41 100 CALM 30.14S FOG HILTON HEAD IS NOT AVBL WALTERBORO PTSUNNY 45 37 76 CALM 30.15S ALLENDALE FAIR 41 36 81 CALM 30.14R ...SOUTHERN MIDLANDS AND PEE DEE... CITY SKY/WX TMP DP RH WIND PRES REMARKS GEORGETOWN PTSUNNY 46 37 71 E5 30.16F KINGSTREE PTSUNNY 41 32 70 CALM 30.18S ORANGEBURG PTCLDY 40 34 79 NE6 30.15F WCI 36 BARNWELL FAIR 41 36 81 CALM 30.15S AIKEN FAIR 34 30 86 NE3 30.17F MANNING FAIR 39 32 75 CALM 30.17S COLUMBIA CLOUDY 37 26 64 N5 30.18R WCI 33 SUMTER CLOUDY 34 28 81 NE9 30.17R WCI 26 FLORENCE CLOUDY 33 25 72 NE10 30.21S WCI 25 MYRTLE BEACH NOT AVBL N MYRTLE BEACH CLOUDY 41 27 57 NE9 30.20S $$ GAZ063-065-086>088-099>101-113>116-118-119-134>141-150-121200- ...SOUTHEAST GEORGIA... CITY SKY/WX TMP DP RH WIND PRES REMARKS SAVANNAH ARPT CLOUDY 45 42 89 CALM 30.15S HUNTER AAF CLOUDY 53 53 99 S7 30.12R FORT STEWART CLOUDY 48 46 91 CALM 30.12F STATESBORO CLOUDY 40 40 99 CALM 30.14R SYLVANIA MOSUNNY 38 38 100 CALM 30.15R CLAXTON CLOUDY 43 42 95 CALM 30.14S ...CSRA...CENTRAL AND FAR SOUTHEAST GEORGIA... CITY SKY/WX TMP DP RH WIND PRES REMARKS THOMSON CLOUDY 37 36 96 NW3 30.21R AUGUSTA-BUSH PTCLDY 37 34 89 N3 30.16R AUGUSTA-DANIEL CLOUDY 42 32 67 CALM 30.15R SWAINSBORO FAIR 36 34 93 CALM 30.14S VIDALIA CLOUDY 46 43 87 CALM 30.13S EASTMAN CLOUDY 48 41 76 CALM 30.15S HAZLEHURST CLOUDY 58 55 89 SW8 30.12S ALMA CLOUDY 56 53 90 SW7 30.14S WAYCROSS CLOUDY 58 57 98 SW8 30.16S JESUP CLOUDY 57 54 88 SW3 30.15F BAXLEY CLOUDY 57 55 94 SW5 30.13S BRUNSWICK CLOUDY 54 52 94 SW7 30.18S SAINT SIMONS CLOUDY 53 52 96 SW8 30.18R $$ SCZ027-028-034-036>038-045-046-048>050-GAZ119-141-121200- ...LAKE AND SUPPLEMENTAL COASTAL OBSERVATIONS... STATION/POSITION TIME TEMP WIND PRES WAVE SWELL AIR SEA DIR/SP/G HT/PER HT/PER/DIR (UTC) (F) (DEG/KT/KT) (MB) (FT/S) (FT/S/D) WINYAH BAY NOT AVBL LAKE MURRAY 1000 35 CALM / 3 1021.3R ACE BASIN NERRS NOT AVBL FORT PULASKI 1000 49 N/A SAPELO ISLAND 1000 49 190/ 6 1021.0S $$ ANZ835-935-AMZ111-154-330-350-352-354-370-450-454-472-121200- ...C-MAN AND BUOY OBSERVATIONS... STATION/POSITION TIME TEMP WIND PRES WAVE SWELL AIR SEA DIR/SP/G HT/PER HT/PER/DIR (UTC) (F) (DEG/KT/KT) (MB) (FT/S) (FT/S/D) BUOY 41004 1050 59 69 240/ 16/ 17 1020.6R 3/ 6 2/ 6 BUOY 41008 1050 54 52 220/ 14/ 16 1021.8R 3/ 6 FOLLY BEACH CMAN 1000 49 40/ 10/ 11 1021.0F CAPERS NEARSHORE 1008 50 60/ 10/ 12 1020.9F FRIPP NEARSHORE 1000 50 250/ 4/ 4 1020.4S STATION/POSITION TIME TEMP WIND PRES WAVE SWELL AIR SEA DIR/SP/G HT/PER HT/PER/DIR (UTC) (F) (DEG/KT/KT) (MB) (FT/S) (FT/S/D) 5E ST. MARYS GA 1021 56 N/A 2/ 5 FRYING PAN BUOY 1000 51 56 50/ 12/ 14 1022.8F BUOY 41025 1050 40 61 10/ 12/ 17 1025.4R 3/ 8 2/100/ 8 CAPE LOOKOUT NC NOT AVBL BUOY 41002 1050 56 68 110/ 6/ 8 N/A 5/ 8 5/ 8 BUOY 41010 1020 67 72 1024.7R ST AUGUSTINE FL 1100 50 56 210/ 5/ 6 1024.5R $$

USA.gov is the U.S. government's official web portal to all federal, state and local government web resources and services.